Location: Hochstatterhof
(48.7256°N, 10.3487°E)
Time: 02:16:39
(UTC+00:00)

Cosmos 371 Rocket - Pass Details

Date: 26 September 2023
Orbit: 682 x 695 km, 74.0° (Epoch: 04 December)

Event Time Altitude Azimuth Distance (km) Brightness Sun altitude
Exits shadow 01:54:32 43° 29° (NNE) 970 4.3 -30.8°
Drops below altitude 10° 01:57:50 10° 25° (NNE) 2,159 6.6 -30.3°
Sets 02:00:09 0° 24° (NNE) 3,078 7.5 -30.0°
